Location: Brusselsch Zeekanaal
(50.8667°N, 4.3667°E)
Time: 10:26:59
(UTC+00:00)

Cosmos 2233 Rocket - Pass Details

Date: 08 November 2025
Orbit: 952 x 989 km, 82.9° (Epoch: 11 December)

Event Time Altitude Azimuth Distance (km) Brightness Sun altitude
Rises 05:05:30 0° 349° (NNW) 3,716 6.9 -16.1°
Reaches altitude 10° 05:08:03 10° 348° (NNW) 2,762 6.2 -15.7°
Maximum altitude 05:14:23 77° 264° (W) 1,016 3.9 -14.7°
Drops below altitude 10° 05:20:37 10° 179° (S) 2,726 6.5 -13.7°
Sets 05:23:07 0° 178° (S) 3,665 7.2 -13.3°
